User: anonymous   Login
Location: Auckland
(36.8670°S, 174.7670°E)
Time: 05:29:33
(UTC+12:00)
Language:

Vanguard 2 Rocket - Orbit

View from above orbital plane
View from above orbital plane
View from above satellite
View from above satellite

Ground track
Ground track

The orbit data is extracted from the following two-line orbital elements,

1    12U 59001B   19228.74333995 +.00000265 +00000-0 +13461-3 0  9994
2    12 032.9144 340.5595 1667484 268.6999 072.2891 11.44287743244958
Epoch (UTC): 16 August 2019 17:50:24
Eccentricity: 0.1667484
inclination: 32.9144°
perigee height: 553 km
apogee height: 3327 km
right ascension of ascending node: 340.5595°
argument of perigee: 268.6999°
revolutions per day: 11.44287743
mean anomaly at epoch: 72.2891°
orbit number at epoch: 24495

The dashed part of the orbit path shows where the satellite is in the earth's shadow,  

DLR